Belize City, Belize

7:30 AM CST on December 04, 2016 (GMT -0600)
Philip S W Goldson International

Weather History for MZBZ - March, 2013

Change the Weather History Date:

Tuesday, March 19, 2013

  Actual Average Record
Temperature  
Mean Temperature 80 °F -  
Max Temperature 85 °F 84 °F 96 °F (2003)
Min Temperature 74 °F 72 °F 69 °F (1997)
Cooling Degree Days 14    
Growing Degree Days 30 (Base 50)    
Moisture  
Dew Point 75 °F    
Average Humidity 80    
Maximum Humidity 94    
Minimum Humidity 69    
Precipitation  
Precipitation 0.00 in - - ()
Sea Level Pressure  
Sea Level Pressure 29.87 in    
Wind  
Wind Speed 6 mph ()    
Max Wind Speed 12 mph    
Max Gust Speed -    
Visibility 7.8 miles    
Events      
Averages and records for this station are not official NWS values.
T = Trace of Precipitation, MM = Missing Value Source: Averaged Metar Reports

Daily Weather History Graph

Daily Weather History Graph

Search for Another Location

Airport or City:

Trip Planner

Search our weather history database for the weather conditions in past years. The results will help you decide how hot, cold, wet, or windy it might be!

Date:

Astronomy

Mar. 19, 2013 Rise Set
Actual Time 5:57 AM CST 6:04 PM CST
Civil Twilight 5:36 AM CST 6:25 PM CST
Nautical Twilight 5:11 AM CST 6:50 PM CST
Astronomical Twilight 4:45 AM CST 7:16 PM CST
Moon 11:34 AM CST (3/19) 12:04 AM CST (3/19)
Length of Visible Light 12h 49m
Length of Day
12h 06m
Waxing Crescent, 50% of the Moon is Illuminated
Mar 19
Waxing Crescent
Mar 27
Full
Apr 2
Last Quarter
Apr 10
New
Apr 18
First Quarter

Hourly Weather History & Observations

Time (CST) Temp. Heat Index Dew Point Humidity Pressure Visibility Wind Dir Wind Speed Gust Speed Precip Events Conditions
12:00 AM 77 °F - 74 °F 89% 29.88 in 12 mi NW 2.3 mph - -   Partly Cloudy
3:00 AM 76 °F - 74 °F 94% 29.83 in 12 mi East 3.5 mph - -   Clear
5:00 AM 75.2 °F - 73.4 °F 94% 29.83 in 6.2 mi ESE 2.3 mph - N/A   Partly Cloudy
6:00 AM 75 °F - 73 °F 93% 29.86 in 12 mi ESE 2.3 mph - -   Partly Cloudy
6:00 AM 75.2 °F - 73.4 °F 94% 29.85 in 6.2 mi ESE 2.3 mph - N/A   Scattered Clouds
7:00 AM 77.0 °F - 75.2 °F 94% 29.87 in 6.2 mi North - - N/A   Scattered Clouds
8:00 AM 82.4 °F 90.9 °F 77.0 °F 84% 29.89 in 6.2 mi East 5.8 mph - N/A   Scattered Clouds
9:00 AM 83 °F - 75 °F 71% 29.91 in 12 mi ENE 5.8 mph - -   Mostly Cloudy
9:00 AM 82.4 °F 89.5 °F 75.2 °F 79% 29.91 in 6.2 mi ENE 5.8 mph - N/A   Mostly Cloudy
10:00 AM 84.2 °F 92.3 °F 75.2 °F 74% 29.91 in 6.2 mi ENE 6.9 mph - N/A   Scattered Clouds
11:00 AM 84.2 °F 92.3 °F 75.2 °F 74% 29.91 in 6.2 mi NE 8.1 mph - N/A   Mostly Cloudy
12:00 PM 86.0 °F 95.1 °F 75.2 °F 70% 29.89 in 6.2 mi NE 9.2 mph - N/A   Mostly Cloudy
1:00 PM 84.2 °F 92.3 °F 75.2 °F 74% 29.87 in 6.2 mi ENE 9.2 mph - N/A   Mostly Cloudy
2:00 PM 86.0 °F 95.1 °F 75.2 °F 70% 29.85 in 6.2 mi ENE 10.4 mph - N/A   Scattered Clouds
3:00 PM 84 °F - 75 °F 69% 29.83 in 16 mi ENE 11.5 mph - -   Scattered Clouds
3:00 PM 84.2 °F 94.1 °F 77.0 °F 79% 29.83 in 6.2 mi ENE 11.5 mph - N/A   Partly Cloudy
4:00 PM 84.2 °F 92.3 °F 75.2 °F 74% 29.83 in 6.2 mi ENE 11.5 mph - N/A   Scattered Clouds
5:00 PM 84.2 °F 92.3 °F 75.2 °F 74% 29.84 in 6.2 mi ENE 11.5 mph - N/A   Scattered Clouds
6:00 PM 81 °F - 74 °F 74% 29.85 in 12 mi ENE 11.5 mph - -   Partly Cloudy
6:00 PM 80.6 °F 85.4 °F 73.4 °F 79% 29.84 in 6.2 mi ENE 11.5 mph - N/A   Scattered Clouds
7:00 PM 80.6 °F 85.4 °F 73.4 °F 79% 29.86 in 6.2 mi ENE 9.2 mph - N/A   Scattered Clouds
8:00 PM 80.6 °F 85.4 °F 73.4 °F 79% 29.89 in 6.2 mi East 9.2 mph - N/A   Scattered Clouds
9:00 PM 78.8 °F - 73.4 °F 83% 29.89 in 6.2 mi East 9.2 mph - N/A   Scattered Clouds
10:00 PM 78.8 °F - 73.4 °F 83% 29.90 in 6.2 mi ESE 6.9 mph - N/A   Mostly Cloudy
11:00 PM 78.8 °F - 73.4 °F 83% 29.89 in 6.2 mi ESE 6.9 mph - N/A   Mostly Cloudy